STARLINK-34364

Last updated on Thu Jul 03 2025 00:02:07 GMT+0000 (Coordinated Universal Time)

1 64495U 25133Z 25183.58335648 -.01281080 00000+0 -63163-2 0 9995 2 64495 53.1549 210.7381 0001112 55.7067 336.3194 15.84100130 2727
UTC large
Height (km)
Speed (km/s)
/
Latitude / Longitude
Inclination (degrees)
Orbital Period (minutes)
Azimuth
Elevation
Range (km)
Doppler Factor

Next 0 passes for location: London (51.5072 / 0.1276)

Sorry there are no passes over London.